Flag for Afghanistan Weather past 2 weeks in Jalalabad, Afghanistan

Now
57 °F

Refreshingly cool.


Feels Like: N/A
Forecast: 24 / 49 °F
Wind: N/A

Location: Peshawar Airport

Current Time: Jan 26, 2015 at 3:50:01 PM

Latest Report: Jan 26, 2015 at 3:30 PM


Visibility: N/A

Pressure: 30.12 "Hg

Humidity: 59%

Dew point: 43 °F

Location of JalalabadLocation

Historic Weather in Jalalabad — Graph

°F

Jalalabad temperature yesterday

Maximum temperature yesterday: 64 °F (at 2:30 PM)
Minimum temperature yesterday: 45 °F (at 4:29 AM)
Average temperature yesterday: 54 °F

Past Weeks' High & Low Weather Summary

 TemperatureHumidityPressure
High72 °F (Jan 11, 2:30 PM)100% (Jan 21, 5:30 PM)30.27 "Hg (Jan 21, 5:30 PM)
Low41 °F (Jan 17, 6:30 AM)27% (Jan 17, 2:30 PM)29.89 "Hg (Jan 19, 2:30 PM)
Average53 °F68%30.11 "Hg
* Reported Jan 11 2:30 PM — Jan 26 2:30 PM, Jalalabad, Weather by CustomWeather, © 2014

Note: Actual official high and low records may vary slightly from our data, if they occured in-between our weather recording intervals... More about our weather records

Advertising

Jalalabad weather history for previous 24 hours

 ConditionsComfort  
Time TempWeatherWind HumidityBarometerVisibility
2:30 PM
Jan 26
57 °FCool.N/A63%30.12 "HgN/A
1:30 PM59 °FRefreshingly cool.N/A59%30.15 "HgN/A
12:30 PM59 °FRefreshingly cool.N/A59%30.18 "HgN/A
11:30 AM54 °FCool.N/A72%30.21 "HgN/A
10:30 AM52 °FCool.N/A72%30.21 "HgN/A
9:30 AM52 °FCool.N/A72%30.21 "HgN/A
8:30 AM50 °FCool.N/A71%30.18 "HgN/A
7:30 AM46 °FPartly sunny.9 mph82%30.18 "Hg2 mi
6:30 AM45 °FPassing clouds.No wind81%30.15 "Hg2 mi
5:30 AM45 °FPassing clouds.No wind81%30.12 "Hg2 mi
4:30 AM45 °FPassing clouds.5 mph81%30.12 "Hg2 mi
3:30 AM46 °FHaze.No wind87%30.12 "Hg2 mi
2:30 AM46 °FHaze.7 mph87%30.12 "Hg2 mi
1:30 AM50 °FCool.N/A71%30.09 "HgN/A
12:30 AM50 °FPassing clouds.No wind67%30.09 "Hg2 mi
11:30 PM
Jan 25
52 °FCool.N/A62%30.09 "HgN/A
10:30 PM52 °FCool.N/A62%30.12 "HgN/A
9:30 PM52 °FCool.N/A67%30.12 "HgN/A
8:30 PM54 °FCool.N/A63%30.12 "HgN/A
7:30 PM54 °FCool.N/A63%30.12 "HgN/A
6:30 PM55 °FRefreshingly cool.N/A51%30.09 "HgN/A
5:30 PM57 °FPassing clouds.16 mph48%30.09 "Hg2 mi
4:30 PM61 °FRefreshingly cool.N/A45%30.07 "HgN/A
3:30 PM63 °FMild.N/A42%30.07 "HgN/A
Weather by CustomWeather, © 2014

See weather overviewHow to use our weather pages